Wind_Speed
9 7 5 6 7 5 4 6 3 1 0 8 10 5 9 2 10 5 9 6 4 19 22 27 29 27 28 30 32 32 30 30 29 28 28 27 27 27 28 25 23 19 16 15 14 13 12 11 12
6 4 5 4 8 9 6 6 8 3 7 10 7 6 2 14 13 7 9 7 9 19 21 25 29 27 28 30 32 33 32 31 29 27 27 26 26 27 27 25 22 18 15 13 13 12 12 13 13
4 4 5 4 9 11 8 5 5 4 7 8 6 5 6 8 13 11 16 4 12 19 20 23 31 29 29 30 31 33 32 30 28 27 26 26 25 26 26 23 20 16 14 13 12 11 12 13 14
4 6 4 9 15 4 6 4 1 3 3 3 7 3 7 12 10 15 10 3 14 17 20 21 31 30 29 29 30 32 30 28 27 26 26 25 24 25 24 22 19 15 14 13 11 11 11 13 15
4 4 9 13 14 2 4 2 3 5 3 5 7 3 2 7 13 13 7 4 12 17 19 17 31 30 30 29 29 29 28 27 26 25 24 24 23 24 23 21 18 15 14 12 11 11 11 13 14
5 4 9 15 14 5 6 2 5 4 3 5 5 9 3 6 13 13 7 3 10 16 18 18 26 28 29 28 27 25 25 25 26 25 23 22 21 22 23 20 17 15 13 11 10 10 11 12 14
10 7 13 14 8 8 4 3 2 5 7 4 10 8 2 10 12 10 7 1 8 14 17 18 21 22 26 26 25 25 24 24 25 24 23 22 22 23 23 20 17 15 12 11 11 11 11 12 14
4 5 9 10 11 11 5 4 4 8 8 8 2 2 4 12 11 7 6 1 7 13 16 18 20 21 20 18 23 23 24 24 25 24 23 23 24 23 23 21 18 15 13 12 11 11 12 12 12
2 6 11 13 9 3 3 6 2 6 12 7 8 10 8 8 11 10 5 2 4 10 15 18 20 21 21 19 18 22 22 23 24 23 24 23 18 18 19 18 18 16 14 13 12 12 12 12 12
7 8 8 6 4 7 6 8 11 10 12 12 10 9 8 10 11 7 8 3 2 9 15 18 19 21 22 20 19 19 18 18 19 20 20 19 18 18 17 18 18 17 15 14 13 13 12 12 10
1 8 4 5 3 6 11 11 8 12 16 12 12 12 12 14 12 10 8 6 7 4 11 18 19 20 21 21 20 21 20 19 19 20 20 20 18 17 17 16 16 14 14 12 13 12 12 12 11
8 2 5 2 8 12 14 14 14 15 17 15 15 16 14 15 12 11 11 10 7 6 7 14 19 21 23 22 22 22 22 22 21 22 22 21 19 18 19 17 16 16 16 15 14 14 13 13 12
8 2 5 8 12 14 15 17 19 18 15 17 15 14 15 14 12 13 10 11 8 8 9 13 18 21 24 25 24 24 25 25 23 23 24 24 22 20 19 18 16 16 16 16 14 13 13 13 13
2 8 11 12 11 10 13 15 12 11 9 9 10 13 13 13 15 15 14 14 10 9 9 11 17 22 23 25 26 26 25 25 25 24 25 26 23 21 21 19 18 17 16 15 15 14 14 14 13
6 12 10 8 5 10 7 17 21 15 14 15 14 15 15 16 19 18 17 16 16 13 11 9 16 21 25 28 28 27 26 26 27 27 26 26 25 23 22 21 19 18 17 15 14 14 14 14 13
10 7 7 10 9 7 5 17 14 6 10 18 18 18 18 19 20 24 23 22 20 17 16 14 14 20 25 27 28 29 29 28 28 27 26 28 27 24 22 22 22 20 18 17 16 15 16 15 15
8 7 11 8 10 8 12 19 15 12 17 20 22 21 20 21 21 26 26 25 25 22 21 18 16 18 23 26 27 29 29 30 29 28 28 28 28 26 23 22 21 20 19 18 17 16 16 17 15
11 14 12 14 8 17 20 24 19 16 17 21 21 21 22 23 24 26 26 25 24 24 23 21 17 16 23 25 26 26 27 28 30 30 29 27 29 29 25 21 20 21 20 19 18 16 17 16 16
12 15 16 16 13 15 21 26 23 20 19 21 21 21 22 23 22 23 24 23 22 23 22 21 18 16 21 25 23 25 25 27 30 30 30 30 28 27 27 24 22 22 22 21 21 18 17 16 14
14 16 17 15 10 16 21 31 26 20 13 15 17 19 19 17 16 15 16 19 20 22 22 20 18 17 18 24 25 27 26 26 27 26 26 29 28 27 28 26 25 25 22 21 20 22 20 20 18
14 16 17 20 18 17 15 21 3 14 10 10 8 9 12 13 13 12 12 14 17 19 21 21 19 16 18 22 23 23 21 22 19 22 30 28 29 28 28 27 27 26 25 24 23 24 22 21 17
17 10 12 17 14 12 12 13 18 8 8 7 9 10 11 11 8 9 7 10 9 11 14 18 18 17 17 19 22 23 24 25 26 27 25 30 30 30 28 27 27 28 27 27 26 26 26 24 21
11 10 14 17 18 20 18 10 6 7 6 6 8 7 3 2 5 7 7 10 9 7 7 9 11 13 16 17 21 21 24 22 21 22 23 29 28 32 31 28 27 27 27 27 26 28 28 27 24
12 15 19 21 14 11 14 12 10 4 7 10 14 10 12 13 10 7 7 8 8 9 8 8 10 11 10 16 18 22 21 23 20 24 23 24 28 32 32 31 29 29 29 29 30 27 24 25 20
6 13 7 5 8 9 6 10 16 17 9 12 11 12 10 9 9 7 7 9 9 10 12 11 12 12 10 10 16 19 22 21 24 24 24 22 25 28 33 35 32 31 29 28 29 28 24 22 21
15 8 6 7 9 15 21 9 2 3 10 10 8 9 7 5 6 7 6 9 11 13 15 15 14 14 14 10 10 15 17 20 20 23 21 23 25 30 31 36 33 32 29 30 27 28 24 23 17
4 7 8 12 18 16 11 15 16 16 7 10 7 6 9 8 8 9 10 11 15 17 19 20 19 16 15 15 11 10 14 18 20 21 21 22 26 24 31 33 34 32 30 28 28 25 21 17 17
13 7 4 4 5 13 12 19 11 11 14 14 14 14 14 15 17 16 14 18 21 22 23 22 23 22 17 16 15 13 11 13 19 24 21 22 24 26 29 29 29 32 30 27 24 17 18 18 17
5 8 7 6 8 7 12 7 18 22 16 15 14 19 22 23 24 24 24 26 26 28 27 26 24 24 21 17 16 16 14 13 15 18 24 24 22 23 24 26 28 29 26 24 25 22 23 24 25
16 17 14 6 10 7 10 20 8 1 12 17 19 19 22 23 24 23 23 30 29 27 30 26 25 23 22 20 18 16 15 14 14 18 22 23 23 24 23 26 21 24 23 21 25 26 26 28 32
Wind_Direction
325 299 284 256 252 239 210 150 326 226 1 0 338 322 347 299 23 17 350 325 186 169 170 175 177 176 174 175 174 173 169 167 165 165 166 164 162 162 159 158 156 155 153 156 159 160 161 159 157
311 287 233 274 261 238 189 130 211 324 349 336 338 330 26 87 24 326 359 359 172 169 170 174 180 179 175 177 176 175 173 171 168 168 169 168 166 166 165 163 162 162 161 163 164 164 162 159 159
289 253 262 253 254 258 272 152 116 296 320 352 344 33 20 359 2 351 338 274 172 169 171 176 181 182 178 179 179 179 177 176 174 173 173 171 170 170 169 169 168 169 165 167 167 169 165 161 161
237 197 218 246 253 219 331 119 128 269 251 343 344 89 115 45 6 351 345 157 166 170 171 185 184 185 183 180 182 182 181 181 180 179 176 174 174 174 173 172 171 169 166 171 171 172 167 165 164
224 253 250 249 259 1 210 275 289 273 295 313 335 29 7 44 13 11 14 152 174 174 174 182 186 188 187 185 186 186 185 184 185 184 181 179 178 177 176 176 173 170 171 173 174 174 174 170 170
217 282 245 256 248 179 229 242 268 250 269 299 320 315 76 19 15 12 18 158 180 177 179 179 184 190 192 190 189 189 188 188 188 187 186 185 183 180 179 180 177 175 177 179 181 182 181 180 181
264 242 260 276 277 228 194 298 281 310 276 265 331 291 4 23 7 13 27 115 187 184 183 180 182 186 195 194 192 191 191 191 192 192 191 189 186 184 184 185 185 184 185 188 188 187 188 189 190
269 264 254 244 256 254 101 302 299 302 297 334 271 278 314 355 343 348 20 40 183 189 187 188 185 187 188 193 196 194 193 193 195 195 195 191 188 188 190 190 192 193 191 193 194 192 193 195 198
252 246 247 247 250 225 139 296 254 313 280 285 293 290 323 323 337 329 337 45 194 192 194 193 188 191 192 190 195 194 197 195 196 195 195 192 187 191 195 192 203 197 193 194 196 197 197 198 204
242 246 272 23 341 284 299 288 307 295 281 276 272 271 292 311 312 304 317 317 238 207 207 201 198 198 195 193 191 189 192 193 191 190 191 189 194 195 198 200 205 199 197 195 198 199 201 197 207
163 271 89 196 308 296 292 281 282 282 277 276 295 293 303 306 294 288 286 291 301 251 216 215 202 206 203 200 193 191 195 197 197 196 194 195 198 198 198 202 204 200 205 201 201 203 203 208 213
251 236 257 274 287 287 280 293 271 265 274 287 282 285 294 288 293 294 290 292 288 272 237 226 218 209 210 206 201 198 197 199 199 200 199 197 199 200 201 203 202 203 203 205 203 205 207 211 212
253 178 245 267 276 278 288 273 275 276 272 270 280 281 273 275 279 279 286 285 274 259 258 230 224 218 215 212 207 206 204 201 204 202 203 199 202 201 201 205 205 206 205 203 206 208 206 207 209
68 279 278 273 279 271 270 279 274 268 265 253 263 269 266 274 279 275 271 274 279 280 276 255 225 224 224 219 215 210 207 204 204 205 205 203 203 203 204 204 205 205 208 207 206 205 206 208 210
293 280 270 245 209 287 318 269 252 258 264 269 273 264 250 266 269 266 268 271 270 273 277 271 247 230 223 222 218 216 214 210 207 207 205 203 205 205 203 204 209 210 207 206 205 203 205 210 213
261 246 254 146 256 272 240 282 278 301 259 274 278 278 268 264 263 264 263 260 259 261 267 268 270 243 227 223 220 218 218 214 213 211 209 205 204 204 207 208 208 207 203 207 208 206 204 210 212
199 301 304 302 199 274 267 291 276 263 260 269 274 271 267 265 259 256 258 256 257 255 260 263 260 247 230 223 225 223 221 217 216 213 211 208 203 206 207 212 210 204 201 203 206 210 208 206 216
313 303 302 297 304 297 292 284 287 290 272 265 264 263 262 263 260 260 258 259 259 260 253 253 251 248 228 225 224 225 224 219 219 216 214 209 205 204 205 209 208 205 202 203 203 209 209 214 213
292 288 293 297 314 298 298 292 294 291 277 268 262 255 255 259 266 266 258 260 264 258 252 247 241 237 226 222 219 219 215 214 219 220 215 210 205 205 207 205 203 206 211 205 197 200 210 210 208
282 287 287 304 305 318 302 294 297 279 270 264 269 268 262 261 261 266 267 261 258 261 259 254 242 235 230 227 221 220 220 221 224 224 216 211 211 206 209 206 201 204 205 207 200 200 202 216 206
279 288 297 302 311 282 295 291 166 338 284 290 284 288 272 259 272 274 271 285 279 257 254 248 244 242 228 226 219 218 222 221 218 217 220 216 215 212 210 209 202 199 203 205 204 203 202 209 209
290 329 309 297 304 301 333 294 297 316 311 276 279 285 267 247 280 255 279 292 299 277 270 261 256 249 234 222 227 211 216 221 223 223 219 213 216 215 213 212 208 196 204 205 199 209 202 216 205
291 325 296 290 282 289 276 253 287 275 303 347 329 345 331 233 313 296 311 321 317 320 310 291 294 271 248 223 220 214 221 228 224 220 216 209 213 214 215 213 211 207 206 207 204 204 203 211 217
312 289 287 266 266 259 258 230 280 287 341 310 313 318 325 335 338 304 304 312 322 329 338 341 333 331 274 242 228 224 222 223 216 220 212 209 211 210 212 213 213 211 210 204 203 205 203 219 219
267 311 303 270 205 253 142 269 256 288 306 316 316 317 324 329 294 294 315 320 318 330 339 340 348 336 333 281 243 233 236 230 228 222 209 203 203 205 210 210 210 211 209 210 207 205 207 210 201
300 290 281 293 298 306 314 262 62 273 302 292 336 331 344 337 343 322 328 320 318 321 322 325 332 331 326 319 292 248 246 242 237 234 220 219 209 204 212 211 211 212 210 209 208 207 207 209 192
43 245 1 289 273 265 248 248 243 252 245 271 286 316 293 310 312 301 303 303 308 311 309 313 317 312 313 312 308 288 258 247 248 242 229 221 222 213 214 212 212 212 211 207 204 207 199 180 164
242 321 271 229 279 299 293 296 295 356 324 309 306 301 308 318 306 295 290 297 296 295 293 294 298 300 299 298 300 292 282 262 249 251 247 235 225 221 217 206 213 212 207 204 196 172 160 148 131
238 237 231 299 277 284 300 288 342 316 325 338 329 336 321 305 304 304 304 301 289 289 284 281 283 285 290 290 291 292 291 281 265 242 250 249 236 229 217 216 211 210 194 185 172 148 137 135 129
268 264 262 251 266 252 282 283 294 232 334 311 308 300 310 318 307 297 291 291 285 277 279 274 273 272 276 282 284 283 282 281 269 253 239 242 242 227 219 214 199 166 142 145 145 138 140 137 136
Height
774 773 771 767 770 752 755 753 739 744 742 735 732 738 743 736 751 761 743 743 745 749 754 758 760 762 764 766 769 773 775 777 779 782 785 787 789 791 793 795 798 800 802 804 805 806 807 808 809
773 772 769 756 770 764 750 742 750 743 739 735 731 732 733 748 742 743 742 747 747 750 755 760 762 765 766 769 770 773 775 777 780 783 786 788 790 792 794 796 798 801 803 805 806 807 808 808 809
773 772 761 758 757 763 752 741 747 743 738 741 739 735 740 756 747 746 747 746 748 751 756 760 763 766 767 770 773 775 777 778 780 783 786 788 791 793 795 798 800 802 804 806 807 808 808 809 809
770 766 761 768 762 748 749 749 750 749 741 741 743 748 745 753 751 751 748 747 749 753 756 759 763 766 769 771 774 777 778 781 783 785 786 788 791 794 796 799 801 803 805 807 808 809 810 811 811
770 760 762 762 753 750 755 754 752 751 750 745 746 749 747 751 752 751 749 749 750 753 757 759 762 766 769 771 775 777 779 781 784 787 789 790 792 795 798 800 802 804 805 808 809 810 811 812 812
765 761 766 759 744 758 756 754 753 754 751 749 750 752 746 750 752 751 750 749 750 753 757 760 762 766 770 772 774 777 780 782 784 786 789 791 794 797 799 802 803 805 806 808 810 811 811 812 813
765 764 759 752 756 763 757 756 758 759 757 752 754 757 743 748 753 752 751 751 751 753 757 761 764 767 770 772 774 776 779 782 785 787 789 791 793 796 798 801 803 804 806 807 809 810 811 813 814
762 763 765 759 760 760 763 763 761 761 760 753 753 753 754 749 752 750 750 751 751 753 756 759 764 768 770 773 774 776 778 781 783 786 789 790 792 794 797 799 802 803 805 807 809 810 811 813 814
767 771 765 758 765 756 766 769 758 760 761 755 753 752 752 753 752 748 746 748 749 752 755 758 761 765 769 771 774 776 779 780 783 785 787 791 795 796 797 800 800 802 804 806 808 810 811 812 813
768 768 756 763 767 768 768 770 765 767 759 757 752 749 750 752 752 750 747 745 748 751 753 755 760 763 765 768 771 775 779 781 783 785 787 791 793 796 798 800 800 801 803 804 806 808 810 811 813
772 770 768 771 772 773 772 770 762 769 765 753 757 752 751 752 750 748 747 747 747 748 751 753 757 762 763 765 769 772 776 779 782 784 786 789 792 794 797 800 802 803 804 805 806 808 810 810 810
777 775 775 770 773 773 771 764 768 764 760 754 753 752 752 751 747 747 746 745 746 747 749 752 753 758 761 762 765 767 770 774 777 780 783 785 789 792 794 796 798 801 802 803 805 806 807 809 810
777 776 778 774 773 769 766 766 763 759 754 754 751 751 750 748 747 746 747 746 745 747 747 749 751 755 757 759 760 762 765 768 771 775 779 781 784 787 790 793 795 798 799 801 803 804 806 807 808
775 777 775 771 769 768 770 762 761 754 750 753 751 749 746 745 745 744 745 743 744 745 745 746 747 750 754 755 756 758 761 763 767 770 773 777 780 783 787 790 792 794 797 798 800 802 804 805 806
778 783 770 768 769 772 768 771 760 749 747 748 747 744 743 741 741 740 741 742 743 742 742 743 743 744 747 750 752 754 757 759 761 764 768 771 776 779 782 785 788 791 794 796 798 799 802 803 804
781 779 772 764 766 766 775 769 747 747 748 746 743 740 738 736 735 734 735 736 737 738 738 739 739 738 741 743 745 747 750 753 756 759 762 765 769 774 778 780 783 786 789 794 796 798 798 800 801
774 770 768 766 765 765 766 759 746 741 744 745 741 735 730 727 727 728 728 729 730 731 732 732 733 733 733 737 740 742 744 746 749 752 756 760 763 769 773 776 779 783 785 788 792 795 795 796 797
776 775 768 768 757 757 756 747 737 733 733 733 730 727 723 719 717 719 720 721 724 726 727 727 727 727 728 730 733 736 738 741 743 745 748 754 757 761 767 771 776 780 782 784 787 792 794 793 794
778 776 772 759 753 759 752 742 734 726 723 721 717 716 714 712 710 711 713 716 718 720 720 721 721 722 723 723 726 729 731 734 737 739 742 746 751 756 761 764 769 775 778 780 782 787 792 792 792
774 772 764 755 749 758 748 734 723 714 714 712 710 707 705 706 707 708 710 712 713 715 715 716 716 716 717 718 720 723 726 729 732 735 738 743 747 749 754 758 762 768 773 777 777 780 783 789 790
768 767 762 762 757 750 743 727 706 706 705 704 702 704 704 704 705 705 706 708 708 708 708 709 711 710 710 711 713 717 722 725 727 730 734 737 741 744 749 753 756 760 766 770 774 778 778 782 787
773 759 767 765 763 756 743 745 720 712 710 705 701 699 698 701 700 702 705 705 704 705 704 704 706 707 706 706 707 708 712 714 718 724 728 731 735 739 744 748 751 753 759 761 765 773 769 777 777
772 770 768 764 762 756 745 748 708 700 709 703 701 701 700 700 701 702 705 705 704 704 703 703 703 702 702 701 702 703 707 709 712 718 721 725 728 733 738 742 746 749 753 755 758 764 765 772 769
773 768 757 749 747 752 724 735 711 702 709 707 701 700 700 701 704 704 707 707 704 703 702 701 701 699 699 699 699 700 701 704 708 711 715 718 721 726 731 736 740 742 746 748 752 758 760 766 767
770 769 760 745 742 734 726 739 718 703 702 704 706 704 705 709 705 706 705 706 705 703 703 703 702 700 699 697 696 697 700 701 702 706 709 712 715 720 723 728 731 735 739 745 748 752 756 761 764
776 778 772 778 743 731 726 731 701 702 701 702 705 709 709 711 709 709 709 708 705 703 702 701 701 700 699 697 695 696 697 699 699 700 703 706 709 709 718 721 724 729 733 739 743 746 751 758 760
768 774 762 770 753 744 721 708 695 686 698 698 700 706 706 707 708 709 708 708 707 705 702 699 697 698 698 696 694 693 692 695 696 695 698 701 703 702 710 714 717 722 728 733 738 742 748 754 760
776 764 778 781 780 752 714 709 695 697 699 697 700 702 704 705 706 704 704 705 704 703 699 697 695 693 694 694 692 690 690 690 691 693 694 695 697 700 707 704 711 719 723 728 735 740 747 754 759
771 770 772 772 767 761 740 709 692 704 702 704 708 715 715 712 707 703 700 699 700 698 694 691 690 688 687 689 688 687 685 686 687 687 689 691 693 694 695 702 707 713 717 725 731 738 743 750 755
761 760 763 781 765 766 759 726 697 701 700 706 708 704 703 707 708 705 702 698 694 693 689 685 684 684 683 684 684 684 683 683 683 682 684 686 689 691 693 698 704 708 714 726 733 735 743 751 756